Location: Hamburg
(53.5500°N, 10.0000°E)
Time: 23:58:25
(UTC+01:00)

A-11 Canister half - All Passes

Search period start: 11 December 2017 00:00
Search period end: 21 December 2017 00:00
Orbit: 1528 x 1681 km, 47.3° (Epoch: 11 December)

Date Brightness Start Highest point End Pass type
(mag) Time Alt. Az. Time Alt. Az. Time Alt. Az.
11 Dec - 11:01:59 10° S 11:09:36 25° SE 11:17:13 10° E daylight
11 Dec - 13:03:26 10° SW 13:13:02 50° SSE 13:22:37 10° E daylight
11 Dec - 15:07:24 10° WSW 15:17:21 62° S 15:27:10 10° ESE daylight
11 Dec - 17:12:08 10° W 17:21:36 47° SSW 17:30:50 10° SE visible
11 Dec - 19:17:55 10° W 19:24:45 21° SW 19:31:28 10° S visible
12 Dec - 10:40:39 10° S 10:48:05 24° SE 10:55:32 10° E daylight
12 Dec - 12:41:54 10° SW 12:51:27 49° SSE 13:01:00 10° E daylight
12 Dec - 14:45:49 10° WSW 14:55:46 62° S 15:05:35 10° ESE daylight
12 Dec - 16:50:31 10° W 17:00:01 48° SSW 17:09:20 10° SE visible
12 Dec - 18:56:11 10° W 19:03:15 22° SW 19:10:12 10° S visible
13 Dec - 10:19:20 10° S 10:26:33 23° SE 10:33:50 10° E daylight
13 Dec - 12:20:22 10° SW 12:29:52 48° SSE 12:39:23 10° E daylight
13 Dec - 14:24:13 10° WSW 14:34:10 62° S 14:44:00 10° ESE daylight
13 Dec - 16:28:53 10° W 16:38:27 49° SSW 16:47:50 10° SE visible
13 Dec - 18:34:28 10° W 18:41:44 23° SW 18:48:54 10° S visible
14 Dec - 09:58:02 10° S 10:05:03 22° SE 10:12:06 10° E daylight
14 Dec - 11:58:50 10° SW 12:08:17 47° SSE 12:17:47 10° E daylight
14 Dec - 14:02:37 10° WSW 14:12:33 62° S 14:22:25 10° ESE daylight
14 Dec - 16:07:16 10° W 16:16:52 50° SSW 16:26:19 10° SE daylight
14 Dec - 18:12:46 10° W 18:20:14 24° SW 18:27:36 10° S visible
15 Dec - 09:36:45 10° S 09:43:33 21° SE 09:50:22 10° E daylight
15 Dec - 11:37:19 10° SW 11:46:43 46° SSE 11:56:10 10° E daylight
15 Dec - 13:41:02 10° WSW 13:50:58 62° S 14:00:50 10° E daylight
15 Dec - 15:45:39 10° W 15:55:18 51° SSW 16:04:47 10° SE daylight
15 Dec - 17:51:03 10° W 17:58:42 26° SW 18:06:16 10° S visible
16 Dec - 09:15:30 10° S 09:22:02 20° SE 09:28:37 10° E daylight
16 Dec - 11:15:49 10° SW 11:25:09 45° SSE 11:34:33 10° E daylight
16 Dec - 13:19:26 10° WSW 13:29:21 62° S 13:39:15 10° E daylight
16 Dec - 15:24:02 10° W 15:33:43 52° SSW 15:43:15 10° SE daylight
16 Dec - 17:29:21 10° W 17:37:12 27° SW 17:44:55 10° S visible
17 Dec - 08:54:16 10° S 09:00:32 19° SE 09:06:51 10° E daylight
17 Dec - 10:54:19 10° SW 11:03:35 44° SSE 11:12:55 10° E daylight
17 Dec - 12:57:51 10° WSW 13:07:45 62° S 13:17:39 10° E daylight
17 Dec - 15:02:25 10° W 15:12:08 53° SSW 15:21:43 10° SE daylight
17 Dec - 17:07:41 10° W 17:15:40 28° SW 17:23:34 10° S visible
18 Dec - 08:33:04 10° SSE 08:39:02 18° SE 08:45:03 10° E daylight
18 Dec - 10:32:49 10° SW 10:42:01 43° SSE 10:51:19 10° E daylight
18 Dec - 12:36:16 10° WSW 12:46:09 61° S 12:56:04 10° E daylight
18 Dec - 14:40:49 10° W 14:50:33 54° SSW 15:00:11 10° SE daylight
18 Dec - 16:46:00 10° W 16:54:09 29° SW 17:02:11 10° SSE visible
19 Dec - 08:11:54 10° SSE 08:17:32 17° SE 08:23:14 10° E daylight
19 Dec - 10:11:21 10° SW 10:20:27 42° SSE 10:29:41 10° E daylight
19 Dec - 12:14:41 10° WSW 12:24:34 61° S 12:34:28 10° E daylight
19 Dec - 14:19:12 10° W 14:28:58 55° SSW 14:38:38 10° SE daylight
19 Dec - 16:24:20 10° W 16:32:37 30° SW 16:40:48 10° SSE visible
20 Dec - 07:50:45 10° SSE 07:56:03 16° SE 08:01:23 10° E visible
20 Dec - 09:49:53 10° SSW 09:58:54 40° SSE 10:08:03 10° E daylight
20 Dec - 11:53:06 10° WSW 12:02:58 61° S 12:12:52 10° E daylight
20 Dec - 13:57:35 10° W 14:07:22 56° SSW 14:17:06 10° ESE daylight
20 Dec - 16:02:40 10° W 16:11:05 31° SW 16:19:24 10° SSE daylight
